Location: Albuquerque Trailhead
(34.7934°N, 106.3736°W)
Time: 02:19:35
(UTC+00:00)

IDEFIX/ARIANE 42P - Pass Details

Date: 20 June 2021
Orbit: 784 x 803 km, 98.4° (Epoch: 27 July)

Event Time Altitude Azimuth Distance (km) Brightness Sun altitude
Rises 10:06:13 0° 6° (N) 3,306 6.7 -17.9°
Reaches altitude 10° 10:08:36 10° 2° (N) 2,369 5.7 -17.6°
Maximum altitude 10:13:41 53° 287° (WNW) 964 2.8 -16.9°
Enters shadow 10:16:18 27° 223° (SW) 1,473 3.4 -16.5°
